This demonstration page uses our WeatherBlox Daily Observations layout. Learn more.

36.19886, -115.1175

Hourly Observations for June 29, 2018

Temp ( °F °C ) Dew Point ( °F °C ) Humidity (%) Winds ( mph kmh ) Pressure ( in mb ) Visibility ( mi km ) Precip ( " mm )
12:53 am 00:53 Clear 86 30 24 -4.4 10 10 SSW 9 15 29.65 1004 10 16.09344 0 0
1:53 am 01:53 Clear 84 28.9 26 -3.3 12 12 SSW 12 19 29.65 1004 10 16.09344 0 0
2:53 am 02:53 Clear 83 28.3 28 -2.2 13 13 SSW 13 20 29.68 1005 10 16.09344 0 0
3:53 am 03:53 Clear 80 26.7 29 -1.7 15 15 NE 3 6 29.68 1005 10 16.09344 0 0
4:53 am 04:53 Clear 80 26.7 31 -0.6 17 17 SW 5 7 29.71 1006 10 16.09344 0 0
5:53 am 05:53 Sunny 74 23.3 32 0 21 21 N 6 9 29.74 1007 10 16.09344 0 0
6:53 am 06:53 Sunny 78 25.6 34 1.1 20 20 N 6 9 29.74 1007 10 16.09344 0 0
7:53 am 07:53 Sunny 81 27.2 34 1.1 18 18 NNW 5 7 29.77 1008 10 16.09344 0 0
8:53 am 08:53 Sunny 83 28.3 33 0.6 17 17 Calm 29.77 1008 10 16.09344 0 0
9:53 am 09:53 Sunny 88 31.1 32 0 13 13 S 6 9 29.77 1008 10 16.09344 0 0
10:53 am 10:53 Sunny 90 32.2 30 -1.1 12 12 SE 7 11 29.77 1008 10 16.09344 0 0
11:53 am 11:53 Sunny 93 33.9 31 -0.6 11 11 SSW 9 15 29.77 1008 10 16.09344 0 0
12:53 pm 12:53 Sunny 94 34.4 30 -1.1 10 10 SE 9 15 29.74 1007 10 16.09344 0 0
1:53 pm 13:53 Sunny 96 35.6 28 -2.2 9 9 S 5 7 29.74 1007 10 16.09344 0 0
2:53 pm 14:53 Sunny 98 36.7 27 -2.8 8 8 SSE 12 19 29.71 1006 10 16.09344 0 0
3:53 pm 15:53 Sunny 99 37.2 25 -3.9 7 7 SSW 8 13 29.68 1005 10 16.09344 0 0
4:53 pm 16:53 Sunny 99 37.2 27 -2.8 8 8 SE 9 15 29.68 1005 10 16.09344 0 0
5:53 pm 17:53 Sunny 99 37.2 25 -3.9 7 7 SE 7 11 29.65 1004 10 16.09344 0 0
6:53 pm 18:53 Sunny 98 36.7 26 -3.3 8 8 SSE 16 26 29.65 1004 10 16.09344 0 0
7:53 pm 19:53 Sunny 96 35.6 28 -2.2 9 9 SSE 14 22 29.65 1004 10 16.09344 0 0
8:53 pm 20:53 Clear 94 34.4 31 -0.6 11 11 S 7 11 29.68 1005 10 16.09344 0 0
9:53 pm 21:53 Clear 91 32.8 31 -0.6 12 12 S 7 11 29.71 1006 10 16.09344 0 0
10:53 pm 22:53 Clear 86 30 31 -0.6 14 14 ESE 7 11 29.71 1006 10 16.09344 0 0
11:53 pm 23:53 Clear 88 31.1 31 -0.6 13 13 SSW 7 11 29.71 1006 10 16.09344 0 0

Powered by AerisWeather